Погода в Бакшус Марше

Австралия     37°40′31″S   144°26′10″E
темп.,
°C
ветер,
м/с
пор.,
м/с
влажн.,
%
обл.,
%
осадки,
мм/ч
давл.,
гПа
погр.,
м
29 июля, чт
чт2901:00+7зсз713715 0.0 1009806
04:00+7зсз613705 0.0 1010641
07:00+7зсз511735 0.0 1011424
10:00+11зсз6106710 0.0 10141101
13:00+14зсз685226 0.0 10141919
16:00+13ссз685883 0.1 1014948
19:00+8ссз36812 0.0 1015107
22:00+8ссз35700 0.0 1016113
30 июля, пт
пт3001:00+9ссз511510 0.0 1015347
04:00+8с615500 0.0 1014676
07:00+8с819542 0.0 1014729
10:00+11с9185199 0.0 1013890
13:00+13с9164996 0.0 10121344
16:00+12с10185286 0.0 10101078
19:00+11с10195683 0.0 10101026
22:00+11с10186599 0.1 10111023
31 июля, сб
сб3101:00+10с8187299 0.1 1009947
04:00+10с6166874 0.1 1008769
07:00+9с818715 0.0 1007571
10:00+12с715625 0.0 1006657
13:00+16ссз8135486 0.0 10041239
16:00+14ссз5137096 0.2 10031305
19:00+10зюз61290100 7.8 1007624
22:00+9сз3789100 8.6 1008283
1 августа, вс
вс101:00+9с1189100 1.8 100716
04:00+8зсз2390100 1.8 100753
07:00+7зсз239264 0.0 100965
10:00+10з467756 0.0 1011583
13:00+13зюз455126 0.0 10101647
16:00+12юз45566 0.0 10101189
19:00+7з12765 0.0 101311
22:00+5сз22820 0.0 101418
2 августа, пн
пн201:00+5сз22840 0.0 101419
04:00+4ссз22800 0.0 101419
07:00+4с33810 0.0 101430
10:00+11с37600 0.0 1012481
13:00+13с68482 0.0 10091440
16:00+12с51059100 0.0 10081392
19:00+9ссв3483100 0.2 1008131
22:00+8ссв3791100 0.6 1006153